023  
ASUS44 KLZK 190805  
RWRLZK  
 
WEATHER ROUNDUP FOR ARKANSAS  
NATIONAL WEATHER SERVICE LITTLE ROCK AR  
300 AM CDT THU SEP 19 2019  
 
NOTE: "FAIR" INDICATES FEW OR NO CLOUDS BELOW 12,000 FEET WITH NO  
SIGNIFICANT WEATHER AND/OR S TO VISIBILITY
.  
 
ARZ001-003-010-029-190900-  
NORTHWEST ARKANSAS  
 
CITY SKY/WX TMP DP RH WIND PRES REMARKS
 
FAYETTEVILLE CLEAR 67 66 97 CALM 30.01S  
FORT SMITH CLEAR 76 73 91 NE3 29.95S  
HARRISON CLEAR 69 65 86 CALM 30.03F  
BENTONVILLE CLEAR 75 67 76 SE6 30.03S  
ROGERS CLEAR 74 67 78 SE6 30.02F  
SILOAM SPGS CLEAR 71 67 87 E3 30.01S  
HIGHFILL CLEAR 70 64 81 CALM 30.01S  

 
 
ARZ004-005-016-190900-  
NORTH CENTRAL ARKANSAS  
 
CITY SKY/WX TMP DP RH WIND PRES REMARKS
 
BATESVILLE CLEAR 70 67 90 CALM 30.00S  
FLIPPIN CLEAR 70 67 90 CALM 30.01S  
MTN HOME CLEAR 72 65 78 CALM 30.00F  

 
 
ARZ040-041-190900-  
WEST CENTRAL ARKANSAS  
 
CITY SKY/WX TMP DP RH WIND PRES REMARKS
 
MENA CLEAR 73 70 88 CALM 29.99S  
MOUNT IDA CLEAR 74 70 87 CALM 29.96S  

 
 
ARZ009-017-025-026-028-190900-  
NORTHEAST ARKANSAS  
 
CITY SKY/WX TMP DP RH WIND PRES REMARKS
 
JONESBORO FAIR 74 66 76 NE5 29.98S  
NEWPORT FAIR 71 67 87 N5 29.98S  
WALNUT RIDGE FAIR 71 68 90 N3 29.99S  
BLYTHEVILLE FAIR 70 64 81 CALM 29.99S  

 
 
ARZ022-023-033-042-044-190900-  
CENTRAL ARKANSAS  
 
CITY SKY/WX TMP DP RH WIND PRES REMARKS
 
LITTLE ROCK PTCLDY 76 71 85 CALM 29.96F  
N LITTLE ROCK N/A 74 69 81 CALM 29.97F  
BENTON PTSUNNY 75 72 88 CALM 29.97S  
JACKSONVILLE PTCLDY 75 72 88 CALM 29.98S  
CONWAY PTSUNNY 73 70 88 CALM 29.95S  
SEARCY FAIR 72 68 87 N7 29.98F  
HOT SPRINGS CLEAR 75 73 93 CALM 29.97S  
RUSSELLVILLE CLEAR 76 65 68 CALM 29.95F  
CLINTON FAIR 68 68 100 CALM 30.00S  

 
 
ARZ036-190900-  
EAST ARKANSAS  
 
CITY SKY/WX TMP DP RH WIND PRES REMARKS
 
WEST MEMPHIS FAIR 76 70 82 CALM 29.96F  

 
 
ARZ050-053-066-070-073-190900-  
SOUTHWEST ARKANSAS  
 
CITY SKY/WX TMP DP RH WIND PRES REMARKS
 
ARKADELPHIA FAIR 72 71 97 CALM 29.96F  
CAMDEN FAIR 72 68 88 CALM 29.95F  
TEXARKANA CLEAR 72 70 93 SE3 29.94F  
EL DORADO FAIR 71 71 100 CALM 29.96S  
DE QUEEN CLEAR 74 69 85 E3 29.93S  

 
 
ARZ056-057-069-190900-  
SOUTHEAST ARKANSAS  
 
CITY SKY/WX TMP DP RH WIND PRES REMARKS
 
PINE BLUFF FAIR 75 69 81 NW3 29.96F  
STUTTGART FAIR 77 70 79 CALM 29.97S  
MONTICELLO FAIR 73 70 90 CALM 29.97R  
 

 
 
 
 
CLICK HERE TO GO TO PREVIOUS BULLETINS.

The Nexlab AR Page Main Text Page